Regional Weather Roundup
Issued by NWS

Home | Current Version | Previous Version | Text Only | Print | Product List | Glossary Off
Versions: 1 2 3 4 5 6 7 8 9 10 11 12 13 14 15 16 17 18 19 20 21 22 23 24 25 26 27 28 29 30 31 32 33 34 35 36 37 38 39 40 41 42 43 44 45 46 47 48 49 50

000
ASUS43 KFSD 280710
RWRSD

WEATHER ROUNDUP FOR SOUTH DAKOTA
NATIONAL WEATHER SERVICE SIOUX FALLS SD
200 AM CDT THU JUL 28 2016

NOTE: "FAIR" INDICATES FEW OR NO CLOUDS BELOW 12,000 FEET WITH NO
SIGNIFICANT WEATHER AND/OR OBSTRUCTIONS TO VISIBILITY.


SDZ001>005-009-010-012>017-280800-
NORTHWEST AND NORTH CENTRAL SOUTH DAKOTA

CITY           SKY/WX    TMP DP  RH WIND       PRES   REMARKS
BUFFALO          N/A     63  61  93 S6        30.07R
FAITH            N/A     64  58  80 E8        30.12F
MOBRIDGE       MOCLDY    67  59  75 S3        30.11R
$$

SDZ012>016-024>037-041>051-057-063-072>074-280800-
SOUTHWEST AND SOUTH CENTRAL SOUTH DAKOTA

CITY           SKY/WX    TMP DP  RH WIND       PRES   REMARKS
RAPID CTY ARPT CLOUDY    60  58  92 NE3       30.15F
PIERRE         CLEAR     63  61  93 CALM      30.09S
CUSTER         LGT RAIN  57  54  89 N7        30.28F
ELLSWORTH AFB  MOCLDY    63  61  92 SE5       30.14F
PHILIP         CLOUDY    58  57  97 W5        30.13R
PINE RIDGE     PTCLDY    66  61  84 SW3       30.14S
WINNER         FAIR      62  59  90 W5        30.11F
$$

SDZ004>011-016>023-039-040-280800-
NORTHEAST SOUTH DAKOTA

CITY           SKY/WX    TMP DP  RH WIND       PRES   REMARKS
ABERDEEN       LGT RAIN  65  59  81 N5        30.10R
WATERTOWN      PTCLDY    62  57  83 N5        30.08S
BROOKINGS      PTCLDY    61  58  90 N6        30.07S
SISSETON         N/A     62  58  86 NW8       30.06S
$$

SDZ017-020-022-023-036>040-048>070-280800-
SOUTHEAST SOUTH DAKOTA

CITY           SKY/WX    TMP DP  RH WIND       PRES   REMARKS
SIOUX FALLS    PTCLDY    65  59  81 NE7       30.04S
HURON          CLOUDY    66  59  78 NE7       30.06F
CHAMBERLAIN    PTCLDY    68  61  77 NE5       30.09R
MITCHELL       CLOUDY    65  62  90 NW3       30.05F
YANKTON        MOCLDY    70  63  78 N3        30.03S
$$

ABBREVIATIONS USED IN REMARKS
   TC - TEMPERATURE IN CELSIUS
  WCI - WIND CHILL INDEX
   HX - HEAT INDEX
  VSB - VISIBILITY





USA.gov is the U.S. government's official web portal to all federal, state and local government web resources and services.